Regional Weather Roundup
Issued by NWS

Home | Current Version | Previous Version | Text Only | Print | Product List | Glossary Off
Versions: 1 2 3 4 5 6 7 8 9 10 11 12 13 14 15 16 17 18 19 20 21 22 23 24 25 26 27 28 29 30 31 32 33 34 35 36 37 38 39 40 41 42 43 44 45 46 47 48 49 50

000
ASUS43 KBIS 161220
RWRND

NORTH DAKOTA REGIONAL WEATHER ROUNDUP
NATIONAL WEATHER SERVICE BISMARCK ND
700 AM CDT TUE SEP 16 2014

NOTE: "FAIR" INDICATES FEW OR NO CLOUDS BELOW 12,000 FEET WITH NO
SIGNIFICANT WEATHER AND/OR OBSTRUCTIONS TO VISIBILITY.


NDZ001>003-009>011-017-161300-
NORTHWEST NORTH DAKOTA

CITY           SKY/WX    TMP DP  RH WIND       PRES   REMARKS
WILLISTON      CLEAR     36  30  79 CALM      30.02F
6HR MIN TEMP:  31; 6HR MAX TEMP:  39;

MINOT          CLEAR     47  39  74 SW9       30.01S
MINOT AFB      CLEAR     42  40  89 SW5       30.00S
$$

NDZ018>021-031>035-040>046-161300-
SOUTHWEST NORTH DAKOTA

CITY           SKY/WX    TMP DP  RH WIND       PRES   REMARKS
BISMARCK       CLEAR     42  38  85 NE5       30.06S
6HR MIN TEMP:  42; 6HR MAX TEMP:  46;

DICKINSON      CLEAR     40  37  89 S5        30.01F
GARRISON         N/A     43  39  86 CALM      30.03F
6HR MIN TEMP:  43; 6HR MAX TEMP:  49;

HETTINGER ARPT CLEAR     34  32  92 CALM      30.04F
$$

NDZ004>008-012>016-024-026-027-054-161300-
NORTHEAST NORTH DAKOTA

CITY           SKY/WX    TMP DP  RH WIND       PRES   REMARKS
GRAND FORKS    PTCLDY    45  38  76 SW7       30.04R
GRND FRKS AFB  CLEAR     45  40  82 SW7       30.04S
DEVILS LAKE    CLEAR     50  37  62 SW13      30.02F
$$

NDZ022-023-025-028>030-036>039-047>053-161300-
SOUTHEAST NORTH DAKOTA

CITY           SKY/WX    TMP DP  RH WIND       PRES   REMARKS
FARGO          CLEAR     44  37  76 S8        30.09F
6HR MIN TEMP:  44; 6HR MAX TEMP:  52;

JAMESTOWN      CLEAR     38  35  89 S5        30.06F
$$



USA.gov is the U.S. government's official web portal to all federal, state and local government web resources and services.